NUSAT-11 (CORA)

Last updated on Sat Oct 07 2023 00:02:25 GMT+0000 (Coordinated Universal Time)

1 46829U 20079C 23279.56738535 .06268077 23322-5 91791-3 0 9995 2 46829 97.1033 354.8970 0010754 272.0469 87.9597 16.34470811164121
UTC large
Height (km)
Speed (km/s)
/
Latitude / Longitude
Inclination (degrees)
Orbital Period (minutes)
Azimuth
Elevation
Range (km)
Doppler Factor

Next 0 passes for location: London (51.5072 / 0.1276)

Sorry there are no passes over London.